TimeEST,TemperatureF,Dew PointF,Humidity,Sea Level PressureIn,VisibilityMPH,Wind Direction,Wind SpeedMPH,Gust SpeedMPH,PrecipitationIn,Events,Conditions,WindDirDegrees,DateUTC
12:54 AM,25.0,17.1,72,29.96,10.0,Calm,Calm,-,N/A,,Mostly Cloudy,0,2012-12-25 05:54:00
1:54 AM,27.0,18.0,69,29.96,10.0,Calm,Calm,-,N/A,,Overcast,0,2012-12-25 06:54:00
2:54 AM,27.0,19.0,72,29.97,4.0,Calm,Calm,-,0.00,Snow,Light Snow,0,2012-12-25 07:54:00
3:18 AM,26.6,19.4,74,29.94,3.0,Calm,Calm,-,0.00,Snow,Light Snow,0,2012-12-25 08:18:00
3:22 AM,26.6,19.4,74,29.94,1.8,Calm,Calm,-,0.00,Snow,Light Snow,0,2012-12-25 08:22:00
3:41 AM,26.6,21.2,80,29.95,3.0,North,3.5,-,0.01,Snow,Light Snow,360,2012-12-25 08:41:00
3:54 AM,26.1,21.0,81,29.98,2.5,Calm,Calm,-,0.01,Snow,Light Snow,0,2012-12-25 08:54:00
4:02 AM,26.6,21.2,80,29.94,1.2,Calm,Calm,-,0.00,Snow,Light Snow,0,2012-12-25 09:02:00
4:27 AM,26.6,21.2,80,29.94,2.0,Calm,Calm,-,0.01,Snow,Light Snow,0,2012-12-25 09:27:00
4:36 AM,26.6,21.2,80,29.94,5.0,Calm,Calm,-,0.01,Snow,Light Snow,0,2012-12-25 09:36:00
4:54 AM,26.1,23.0,88,29.97,7.0,Calm,Calm,-,0.01,,Overcast,0,2012-12-25 09:54:00
5:43 AM,26.6,21.2,80,29.96,4.0,NNE,4.6,-,0.01,Snow,Light Snow,20,2012-12-25 10:43:00
5:52 AM,26.1,21.9,84,29.99,1.5,North,4.6,-,0.01,Snow,Light Snow,360,2012-12-25 10:52:00
6:02 AM,26.6,21.2,80,29.97,3.0,North,3.5,-,0.00,Snow,Light Snow,360,2012-12-25 11:02:00
6:44 AM,26.6,21.2,80,29.98,10.0,Calm,Calm,-,0.00,,Overcast,0,2012-12-25 11:44:00
6:54 AM,26.1,21.9,84,30.02,10.0,Calm,Calm,-,0.00,,Overcast,0,2012-12-25 11:54:00
7:09 AM,26.6,21.2,80,29.98,10.0,Calm,Calm,-,N/A,,Overcast,0,2012-12-25 12:09:00
7:54 AM,27.0,21.9,81,30.03,10.0,Calm,Calm,-,N/A,,Overcast,0,2012-12-25 12:54:00
8:54 AM,27.0,21.9,81,30.06,6.0,Calm,Calm,-,N/A,,Haze,0,2012-12-25 13:54:00
9:49 AM,26.6,23.0,86,30.05,10.0,Calm,Calm,-,N/A,,Overcast,0,2012-12-25 14:49:00
9:54 AM,27.0,21.9,81,30.09,10.0,Calm,Calm,-,N/A,,Overcast,0,2012-12-25 14:54:00
10:19 AM,26.6,21.2,80,30.07,9.0,Calm,Calm,-,N/A,,Overcast,0,2012-12-25 15:19:00
10:54 AM,26.1,21.9,84,30.10,9.0,Calm,Calm,-,N/A,,Overcast,0,2012-12-25 15:54:00
11:54 AM,26.1,21.0,81,30.09,10.0,WNW,5.8,-,N/A,,Overcast,300,2012-12-25 16:54:00
12:54 PM,27.0,19.9,75,30.09,10.0,Variable,4.6,-,N/A,,Overcast,0,2012-12-25 17:54:00
1:20 PM,26.6,21.2,80,30.05,10.0,NW,5.8,-,N/A,,Overcast,310,2012-12-25 18:20:00
1:54 PM,28.9,19.0,67,30.09,10.0,NW,8.1,-,N/A,,Scattered Clouds,320,2012-12-25 18:54:00
2:01 PM,28.4,19.4,69,30.07,10.0,NW,6.9,-,N/A,,Mostly Cloudy,310,2012-12-25 19:01:00
2:49 PM,28.4,19.4,69,30.11,10.0,WNW,5.8,-,N/A,,Scattered Clouds,300,2012-12-25 19:49:00
2:54 PM,28.9,19.0,67,30.14,10.0,NW,5.8,-,N/A,,Partly Cloudy,310,2012-12-25 19:54:00
3:54 PM,27.0,17.1,66,30.17,10.0,NW,9.2,-,N/A,,Scattered Clouds,320,2012-12-25 20:54:00
4:49 PM,24.8,17.6,74,30.15,10.0,West,3.5,-,N/A,,Overcast,280,2012-12-25 21:49:00
4:54 PM,25.0,17.1,72,30.19,10.0,Calm,Calm,-,N/A,,Overcast,0,2012-12-25 21:54:00
5:12 PM,24.8,15.8,69,30.16,10.0,WNW,4.6,-,N/A,,Mostly Cloudy,300,2012-12-25 22:12:00
5:54 PM,23.0,15.1,72,30.20,10.0,Calm,Calm,-,N/A,,Clear,0,2012-12-25 22:54:00
6:33 PM,23.0,15.8,74,30.21,10.0,NW,4.6,-,N/A,,Mostly Cloudy,310,2012-12-25 23:33:00
6:54 PM,21.9,14.0,72,30.25,10.0,NW,4.6,-,N/A,,Scattered Clouds,310,2012-12-25 23:54:00
7:54 PM,19.9,12.9,74,30.25,10.0,Calm,Calm,-,N/A,,Clear,0,2012-12-26 00:54:00
8:28 PM,19.4,12.2,74,30.23,10.0,Calm,Calm,-,N/A,,Mostly Cloudy,0,2012-12-26 01:28:00
8:54 PM,19.0,14.0,81,30.28,10.0,Calm,Calm,-,N/A,,Overcast,0,2012-12-26 01:54:00
9:26 PM,17.6,12.2,79,30.24,10.0,Calm,Calm,-,N/A,,Scattered Clouds,0,2012-12-26 02:26:00
9:54 PM,18.0,12.9,81,30.28,10.0,Calm,Calm,-,N/A,,Clear,0,2012-12-26 02:54:00
10:54 PM,12.9,10.9,92,30.30,10.0,Calm,Calm,-,N/A,,Clear,0,2012-12-26 03:54:00
11:54 PM,14.0,10.0,84,30.31,10.0,Calm,Calm,-,N/A,,Clear,0,2012-12-26 04:54:00